"Pseudo-MPEC" for ZTF02s3

Created 2019 Feb 20 14:18:14 UT using Find_Orb

Click here for an explanation of pseudo-MPECs

 
 Astrometry: 
     ZTF02s3  C2019 02 10.25618809 50 33.48 +18 34 05.1    ~2ALI 17.36RUNEOCPI41
     ZTF02s3  C2019 02 10.25653509 50 40.26 +18 33 09.1    ~2ALI 17.36RUNEOCPI41
     ZTF02s3  C2019 02 10.26484209 53 26.44 +18 10 20.9    ~2ALI 16.98RUNEOCPI41
     ZTF02s3  C2019 02 10.26518909 53 33.62 +18 09 18.3    ~2ALI 16.98RUNEOCPI41

Station data:
(I41) Palomar Mountain--ZTF  (N33.357340 W116.859780)  US/California. 1.2-m
   f/2.44 Oschin Schmidt + CCD.

Orbital elements:  ZTF02s3
   Perigee 2019 Feb 10.350758 +/- 38.8 TT =  8:25:05 (JD 2458524.850758)
Epoch 2019 Feb 10.0 TT = JDT 2458524.5                        AutoNEOCP
q  2446.38050 +/- 1.57e+7           (J2000 equator)
H   34.7  G 0.15                    Peri.  278.79113 +/- 41
                                    Node     8.73677 +/- 60
e   1.0844187 +/- 0.161             Incl.   28.17529 +/- 0.9
From 4 observations 2019 Feb. 10 (13.0 min); mean residual 2".12
IMPACT at 10 Feb 2019 8:15:30.79 lat +0.94021 lon W76.95955
Residuals in arcseconds: 
190210 I41  2.6-  2.1+    190210 I41  2.5+  .31-    
190210 I41  2.7+  2.2-    190210 I41  2.5-  .42+    

Ephemerides (geocentric):
Date (UTC) HH   RA              Dec         delta   r     elong  mag " sig PA
---- -- -- --  -------------   -----------  ------ ------ -----  --- ---- ---
2019 02 20 14  00 07 05.317   -03 52 04.10  .02025 .97105  29.0 34?? 104d 174
2019 02 20 15  00 07 04.545   -03 52 07.01  .02033 .97098  28.9 34?? 104d 174
2019 02 20 16  00 07 03.770   -03 52 09.94  .02041 .97091  28.9 34?? 104d 174
2019 02 20 17  00 07 02.991   -03 52 12.88  .02049 .97084  28.9 34?? 104d 174
2019 02 20 18  00 07 02.208   -03 52 15.85  .02057 .97078  28.8 34?? 104d 174
2019 02 20 19  00 07 01.422   -03 52 18.84  .02065 .97071  28.8 34?? 104d 174
2019 02 20 20  00 07 00.632   -03 52 21.84  .02073 .97064  28.7 34?? 104d 174
2019 02 20 21  00 06 59.839   -03 52 24.86  .02081 .97057  28.7 34?? 104d 174
2019 02 20 22  00 06 59.042   -03 52 27.90  .02089 .97050  28.6 34?? 104d 174
2019 02 20 23  00 06 58.242   -03 52 30.96  .02097 .97043  28.6 34?? 104d 174
2019 02 21 00  00 06 57.439   -03 52 34.03  .02105 .97036  28.5 34?? 104d 174
2019 02 21 01  00 06 56.632   -03 52 37.12  .02113 .97029  28.5 34?? 104d 174
2019 02 21 02  00 06 55.822   -03 52 40.23  .02121 .97022  28.5 34?? 104d 174
2019 02 21 03  00 06 55.009   -03 52 43.35  .02129 .97015  28.4 34?? 104d 174
2019 02 21 04  00 06 54.192   -03 52 46.49  .02137 .97008  28.4 34?? 104d 174
2019 02 21 05  00 06 53.372   -03 52 49.65  .02145 .97001  28.3 35?? 104d 174
2019 02 21 06  00 06 52.549   -03 52 52.82  .02153 .96994  28.3 35?? 104d 174
2019 02 21 07  00 06 51.723   -03 52 56.01  .02162 .96987  28.2 35?? 104d 174
2019 02 21 08  00 06 50.893   -03 52 59.21  .02170 .96980  28.2 35?? 104d 174
2019 02 21 09  00 06 50.061   -03 53 02.43  .02178 .96974  28.1 35?? 104d 174
2019 02 21 10  00 06 49.226   -03 53 05.67  .02186 .96967  28.1 35?? 104d 174
2019 02 21 11  00 06 48.387   -03 53 08.91  .02194 .96960  28.1 35?? 104d 174
2019 02 21 12  00 06 47.546   -03 53 12.18  .02202 .96953  28.0 35?? 104d 174
2019 02 21 13  00 06 46.701   -03 53 15.45  .02210 .96946  28.0 35?? 104d 174
2019 02 21 14  00 06 45.854   -03 53 18.74  .02218 .96939  27.9 35?? 104d 174
2019 02 21 15  00 06 45.003   -03 53 22.05  .02226 .96932  27.9 35?? 104d 174
2019 02 21 16  00 06 44.150   -03 53 25.36  .02234 .96925  27.8 35?? 104d 174
2019 02 21 17  00 06 43.294   -03 53 28.70  .02242 .96918  27.8 35?? 104d 174
2019 02 21 18  00 06 42.435   -03 53 32.04  .02250 .96910  27.7 35?? 104d 174
2019 02 21 19  00 06 41.573   -03 53 35.40  .02258 .96903  27.7 35?? 104d 174
2019 02 21 20  00 06 40.709   -03 53 38.77  .02266 .96896  27.6 35?? 104d 174
2019 02 21 21  00 06 39.842   -03 53 42.15  .02275 .96889  27.6 35?? 104d 174
2019 02 21 22  00 06 38.972   -03 53 45.55  .02283 .96882  27.6 35?? 104d 174
2019 02 21 23  00 06 38.099   -03 53 48.95  .02291 .96875  27.5 35?? 104d 174
2019 02 22 00  00 06 37.224   -03 53 52.37  .02299 .96868  27.5 35?? 104d 174
2019 02 22 01  00 06 36.346   -03 53 55.80  .02307 .96861  27.4 35?? 104d 174
2019 02 22 02  00 06 35.465   -03 53 59.25  .02315 .96854  27.4 35?? 104d 174
2019 02 22 03  00 06 34.582   -03 54 02.70  .02323 .96847  27.3 35?? 104d 174
2019 02 22 04  00 06 33.696   -03 54 06.17  .02331 .96840  27.3 35?? 104d 174
2019 02 22 05  00 06 32.808   -03 54 09.64  .02339 .96833  27.2 35?? 104d 174
2019 02 22 06  00 06 31.917   -03 54 13.13  .02347 .96826  27.2 35?? 104d 174
2019 02 22 07  00 06 31.024   -03 54 16.63  .02356 .96819  27.1 35?? 104d 174
2019 02 22 08  00 06 30.128   -03 54 20.14  .02364 .96812  27.1 35?? 104d 174
2019 02 22 09  00 06 29.229   -03 54 23.66  .02372 .96804  27.1 35?? 104d 174
2019 02 22 10  00 06 28.329   -03 54 27.19  .02380 .96797  27.0 35?? 104d 174
2019 02 22 11  00 06 27.426   -03 54 30.73  .02388 .96790  27.0 35?? 104d 174
2019 02 22 12  00 06 26.520   -03 54 34.28  .02396 .96783  26.9 35?? 104d 174
2019 02 22 13  00 06 25.612   -03 54 37.84  .02404 .96776  26.9 35?? 104d 174